GEFSMA_500_meanwind_114.txt.gz
Wind_Speed
25 25 25 26 26 26 27 27 28 29 30 31 31 32 32 33 33 33 34 34 35 35 36 37 37 37 38 39 39 40 40 41 42 43 44 44 45 45 46 46 47 47 47
26 26 26 27 27 27 28 29 30 31 31 32 32 33 33 33 33 34 34 35 35 36 36 37 37 38 39 39 40 41 41 42 43 44 44 45 46 47 47 48 48 49 49
27 28 28 28 28 29 30 30 31 32 32 33 33 33 33 34 34 35 35 36 36 36 37 37 38 39 40 40 41 42 42 43 44 44 45 45 46 47 47 48 48 49 49
29 29 29 29 30 31 31 32 32 33 33 34 34 34 35 35 36 37 37 38 38 38 38 39 39 40 40 41 42 42 43 44 45 45 46 46 46 47 48 48 49 49 50
30 30 30 31 31 32 33 33 33 34 34 35 36 36 36 37 38 38 39 39 39 40 40 40 41 41 42 42 43 44 44 45 46 46 47 47 48 48 49 49 50 50 51
31 31 32 32 33 33 34 34 35 35 35 36 37 37 38 38 39 40 40 40 41 42 42 42 43 43 44 44 45 45 46 46 47 47 48 48 49 50 50 51 51 52 53
32 32 32 33 33 34 35 35 36 36 36 37 37 38 39 40 40 41 42 42 43 43 44 44 45 45 46 46 47 47 48 48 49 49 50 50 51 52 52 53 53 54 55
33 33 33 34 34 35 36 37 37 37 38 38 39 39 40 41 42 42 43 44 45 45 46 46 47 48 48 49 49 49 50 50 51 52 52 53 54 54 55 55 56 56 57
34 34 35 35 36 37 37 38 38 39 39 40 40 41 41 41 42 43 44 45 46 47 48 48 49 50 50 51 51 52 53 54 54 55 55 56 57 57 58 58 59 59 59
35 35 36 36 37 38 39 39 40 40 41 41 42 42 43 43 43 42 44 46 47 48 49 50 51 52 52 53 54 54 55 56 57 57 58 59 59 60 60 61 61 62 62
35 36 36 37 38 39 40 40 41 41 42 43 43 43 44 44 45 44 44 45 46 48 49 51 52 53 54 55 56 57 58 59 59 60 61 61 62 63 63 64 64 64 65
36 37 38 38 39 40 40 41 41 42 43 44 44 45 45 46 46 46 46 46 46 47 49 50 52 54 55 56 57 58 59 60 61 62 63 63 64 65 66 66 67 67 67
37 38 38 39 40 40 41 42 43 44 44 45 45 46 46 47 48 48 48 48 48 48 49 51 53 54 55 56 57 58 59 61 62 63 64 65 66 67 67 68 69 69 70
38 38 39 40 41 42 43 44 45 45 46 46 46 47 48 48 49 49 50 51 51 50 50 51 53 54 55 57 58 59 60 61 63 64 65 66 68 68 69 70 70 71 71
38 39 40 42 43 43 44 45 46 46 47 47 48 48 48 49 50 51 52 52 53 52 51 52 54 55 56 57 59 60 62 63 64 66 68 69 70 71 72 72 72 73 73
39 41 42 43 43 44 45 46 47 47 48 48 48 49 49 50 51 52 52 53 54 55 54 54 56 57 59 60 62 63 65 66 67 69 70 71 72 73 74 75 76 76 77
40 42 43 44 44 45 46 47 47 48 48 48 49 50 51 51 52 53 53 54 55 56 57 57 59 61 62 64 65 67 68 70 71 72 73 74 75 76 76 77 78 78 79
41 43 44 45 45 46 47 48 48 48 49 49 50 51 52 53 53 54 55 56 57 58 60 60 61 63 65 67 69 70 72 74 75 76 77 78 79 79 79 79 79 78 78
42 44 45 45 46 47 48 48 49 49 50 51 51 52 53 54 55 55 56 57 59 60 62 64 64 67 69 71 73 74 75 77 78 79 80 80 80 79 79 78 77 75 75
44 45 46 46 47 47 48 49 49 50 51 52 53 53 54 55 56 57 58 60 61 63 65 67 69 70 72 74 76 78 78 79 79 80 79 78 76 75 73 72 71 70 69
45 46 46 47 47 48 49 50 50 51 52 53 54 55 56 56 57 59 60 62 64 66 69 71 73 74 75 77 79 80 80 78 77 76 74 71 69 67 65 64 62 61 59
45 46 46 47 48 49 50 51 52 52 53 54 55 56 57 58 59 61 63 65 68 70 73 75 76 77 78 79 80 79 78 76 72 69 66 62 61 59 57 56 54 52 50
46 46 47 47 48 49 51 52 52 53 54 55 56 57 58 59 61 64 66 68 71 74 77 78 78 78 78 79 78 76 74 70 65 61 59 55 53 51 50 48 46 45 43
46 46 47 48 49 50 52 52 53 54 55 56 58 59 60 62 65 67 69 71 74 75 76 77 78 78 78 78 75 72 68 64 59 55 53 49 46 45 43 41 40 38 36
46 47 48 49 50 51 52 53 54 56 57 58 59 61 63 66 68 71 73 74 75 75 76 77 78 77 76 73 70 67 63 58 53 48 47 44 41 39 37 35 33 32 30
46 47 48 49 51 52 53 55 57 58 59 60 62 64 67 69 71 73 75 75 75 75 75 76 76 74 71 68 65 62 57 53 48 43 41 40 37 35 31 30 29 27 25

GEFSMA_500_meanwind_120.txt.gz
Wind_Speed
27 27 27 27 28 28 28 29 29 29 30 31 31 31 32 32 33 33 33 34 34 34 35 35 35 36 36 37 37 37 38 38 39 39 40 41 41 42 42 43 43 44 44
28 28 28 28 29 29 29 30 30 31 31 32 33 33 33 33 34 34 34 34 35 35 35 36 36 37 38 38 39 39 39 40 40 41 41 41 42 42 43 44 44 45 45
30 30 30 30 30 31 31 31 32 32 33 33 34 34 34 34 35 35 35 35 35 36 36 37 37 38 39 40 40 40 40 41 41 42 42 43 43 44 44 45 46 46 46
31 31 31 31 31 32 32 33 33 34 34 34 35 35 35 36 35 35 36 36 36 36 37 38 38 39 39 40 40 41 41 42 42 43 43 44 45 45 46 46 47 48 48
32 32 32 32 33 33 34 34 34 35 35 35 35 36 37 37 36 36 37 37 38 38 38 39 39 40 40 40 41 41 42 42 43 44 44 45 45 46 47 47 48 49 49
33 33 33 34 34 34 34 35 35 35 36 36 36 37 37 37 37 38 38 38 39 39 39 39 40 40 41 41 42 42 43 44 44 45 45 46 47 47 48 49 49 50 50
33 34 34 34 34 35 35 35 36 36 37 37 37 37 38 38 39 39 39 39 40 40 41 41 41 41 42 42 43 43 44 45 46 46 47 47 48 49 49 50 51 52 52
34 35 35 35 35 35 35 36 37 37 37 37 38 38 38 39 39 40 40 41 41 42 42 42 42 43 43 44 44 45 45 46 47 47 48 49 50 50 51 52 52 53 54
35 35 35 35 35 36 36 37 37 37 38 38 39 40 39 39 39 40 41 42 43 43 43 43 44 44 45 45 45 45 46 47 48 48 49 50 51 52 52 53 54 55 56
35 35 35 35 35 36 37 37 38 38 39 39 40 40 41 41 41 41 42 43 43 44 44 45 46 46 46 46 46 47 47 48 48 49 50 51 52 53 54 55 56 57 58
35 36 36 36 36 37 37 38 39 39 40 40 41 41 41 42 43 42 42 43 44 45 45 46 47 47 47 47 48 48 49 49 50 50 51 52 52 54 55 56 57 58 59
36 36 36 36 37 37 38 39 40 40 41 41 42 42 43 43 43 44 43 43 44 45 45 46 47 47 48 48 49 49 50 50 51 52 53 54 55 56 57 58 60 61 62
36 37 37 37 37 38 39 39 40 41 42 42 43 44 44 44 45 45 45 45 44 44 44 46 47 47 48 48 49 50 51 52 53 54 55 56 57 59 60 62 63 64 65
37 37 37 37 38 38 39 40 41 42 43 43 44 44 44 45 45 46 46 46 45 44 45 46 47 48 48 49 50 51 52 53 54 56 57 59 61 62 64 65 66 67 67
37 37 38 38 38 39 40 41 42 43 44 44 44 45 45 46 46 46 47 47 47 46 45 46 48 48 49 50 51 52 54 55 56 58 60 62 64 66 67 68 69 70 71
37 38 38 38 39 40 40 41 42 44 44 44 45 46 46 46 47 47 47 48 48 48 47 47 49 49 50 51 53 55 56 58 60 62 65 67 68 70 71 71 72 73 74
37 37 38 39 40 40 41 42 43 44 44 45 46 46 47 47 47 48 48 49 49 49 49 49 50 51 53 54 56 58 60 62 65 67 69 71 72 73 74 75 76 77 78
37 38 39 39 40 41 42 43 44 44 45 46 47 47 48 48 48 49 50 50 51 51 51 51 52 54 56 58 60 62 64 66 69 70 72 74 75 76 77 78 78 78 78
39 39 39 40 41 42 43 43 44 45 46 47 48 48 49 49 50 50 51 52 52 53 54 54 55 57 59 62 64 66 68 70 71 73 75 76 77 77 77 77 76 75 74
39 39 40 41 42 43 43 44 45 46 47 48 49 49 50 51 51 52 52 53 54 55 56 57 58 60 63 66 68 69 70 72 73 75 76 76 76 75 74 73 71 69 66
39 39 40 41 42 43 45 46 46 47 48 49 49 50 51 52 53 54 54 55 57 58 59 61 62 65 67 69 71 72 73 73 73 74 74 73 72 70 69 67 64 61 59
39 41 42 43 43 44 46 46 47 48 49 50 51 52 53 54 55 56 57 58 59 60 62 65 67 68 70 71 72 73 74 73 71 72 72 69 68 65 62 59 57 54 52
40 41 42 43 44 46 46 47 48 49 50 51 52 53 54 55 56 57 59 60 61 63 66 68 69 70 71 71 72 71 71 72 72 71 70 65 61 58 55 52 51 48 46
40 42 43 44 46 46 47 48 49 50 51 52 53 54 55 57 58 60 60 61 63 65 68 69 70 70 70 70 70 71 72 72 70 68 66 60 55 52 49 48 47 44 41
41 42 44 45 46 46 48 50 51 51 52 53 54 55 57 58 60 61 63 64 65 66 68 69 69 69 69 69 70 72 72 71 67 62 59 56 51 48 45 44 41 39 35
42 43 44 45 46 47 49 50 51 52 53 54 55 57 59 60 62 63 65 66 66 67 67 68 68 68 68 69 71 71 70 67 64 58 53 51 48 45 39 37 35 33 30

GEFSMA_500_meanwind_126.txt.gz
Wind_Speed
24 25 26 26 27 28 28 29 29 29 29 30 30 31 31 32 33 34 34 35 35 35 35 36 36 36 36 36 37 38 38 38 39 40 40 41 41 42 42 42 42 42 43
26 27 28 28 29 30 30 30 30 31 31 31 32 32 32 33 33 34 35 35 36 36 36 36 37 37 37 38 38 39 40 40 41 41 42 42 43 43 43 43 43 43 44
28 29 30 30 31 31 31 32 32 32 32 33 33 33 33 34 34 35 35 35 36 36 37 37 37 38 38 39 40 40 41 41 42 42 43 43 43 44 44 44 45 45 45
30 31 31 32 32 32 33 33 33 33 34 34 34 34 34 35 35 35 35 36 36 37 38 38 39 39 39 40 40 41 41 42 42 43 43 44 44 44 44 45 45 45 46
32 32 33 33 34 34 34 34 34 34 34 34 34 35 35 36 36 36 36 37 37 38 38 39 39 40 40 41 42 42 42 43 43 43 44 44 44 45 45 45 45 46 46
33 34 34 34 35 35 34 34 34 35 35 35 35 35 35 36 37 37 37 38 38 39 39 39 40 41 41 42 43 43 43 43 43 43 44 44 45 45 45 45 46 46 47
35 35 35 35 35 35 35 35 35 35 35 36 36 36 36 37 37 38 38 38 39 39 39 40 41 42 43 43 44 44 44 44 44 44 44 45 45 45 46 46 46 47 47
36 36 36 36 36 36 36 36 36 36 36 36 36 37 37 38 38 39 39 40 40 40 41 42 43 43 44 44 44 44 44 45 45 45 45 45 45 46 46 47 47 48 49
36 37 37 37 37 36 36 36 36 36 36 37 37 37 38 38 39 39 40 41 42 42 43 44 44 44 44 44 44 44 44 45 45 45 45 45 45 46 46 47 48 48 49
37 37 38 38 38 37 37 36 36 37 37 37 38 38 39 39 39 40 41 42 43 44 44 44 45 45 44 44 44 44 44 45 45 45 45 46 46 46 47 48 49 50 51
38 38 38 38 38 37 37 37 38 38 38 38 38 39 39 40 41 41 42 43 43 44 44 45 45 45 45 45 45 45 45 46 46 46 46 47 47 48 49 50 51 52 53
39 38 39 39 38 38 38 38 38 38 39 39 39 39 40 41 41 42 42 43 43 44 44 45 45 45 45 45 46 46 47 47 47 48 48 48 49 50 51 53 54 55 56
38 39 39 39 38 38 39 39 39 38 39 39 40 41 41 42 42 43 43 43 43 44 44 45 45 46 46 46 47 47 48 48 49 49 50 51 52 53 55 56 58 59 61
39 40 39 39 39 39 39 39 38 39 40 40 41 41 42 42 43 44 44 44 44 44 44 45 45 46 47 47 47 48 49 49 50 51 52 54 55 57 59 60 62 64 65
40 40 40 39 39 39 39 39 39 40 40 41 41 42 42 43 44 44 44 44 45 45 45 45 46 47 48 48 48 49 50 51 52 53 55 57 59 61 63 65 66 68 70
40 40 40 39 39 39 39 39 40 40 40 41 42 42 43 44 44 45 45 45 46 46 46 46 47 48 49 50 51 51 52 53 55 57 59 61 63 65 67 69 71 73 75
40 40 39 39 39 39 39 40 40 40 41 42 42 42 43 44 45 45 46 46 47 47 47 48 49 50 51 52 53 54 55 56 58 60 63 65 67 69 72 73 75 76 77
39 39 39 39 39 39 40 40 41 41 42 42 42 43 44 45 46 46 47 47 48 48 49 49 50 52 54 55 55 56 58 59 62 64 66 68 70 72 73 75 76 78 78
39 39 38 39 39 39 40 41 41 41 41 42 43 44 45 46 46 47 48 48 49 50 51 52 53 54 56 57 57 59 61 63 65 66 68 70 72 73 75 76 76 76 75
39 38 38 39 39 40 40 41 41 41 42 43 44 45 46 46 47 48 49 50 51 52 53 54 55 57 58 59 60 61 62 64 66 68 69 71 73 74 75 74 73 72 70
38 38 38 38 39 39 40 41 41 42 43 44 45 46 46 47 48 49 50 51 52 54 55 57 58 59 60 61 62 63 64 66 67 69 70 71 72 72 72 71 70 68 65
37 37 37 38 39 39 40 41 42 43 44 45 46 46 47 48 49 50 52 53 54 56 58 59 60 61 62 63 64 65 66 67 68 69 69 68 70 70 71 69 66 63 60
36 37 37 38 38 39 40 41 42 43 44 45 46 47 47 49 50 51 52 54 56 58 60 62 62 63 63 64 65 66 67 68 69 69 68 67 69 69 67 65 62 59 56
36 36 37 37 38 39 40 41 42 43 45 46 46 47 48 50 51 53 54 56 58 60 62 62 63 63 64 65 66 67 67 67 67 67 68 68 67 64 62 60 57 53 51
35 36 37 37 38 39 41 42 43 44 45 46 47 48 50 51 52 54 56 58 60 61 61 62 63 64 64 65 66 66 66 66 65 65 67 66 63 60 57 55 51 49 46
36 36 37 38 39 40 41 42 44 44 45 47 48 49 51 52 54 56 58 59 60 61 62 63 63 64 64 65 65 66 66 65 65 64 64 63 60 56 51 48 46 44 41

GEFSMA_500_meanwind_132.txt.gz
Wind_Speed
18 19 20 21 22 23 25 26 26 27 28 29 29 30 31 31 32 33 34 34 35 35 36 37 37 38 38 38 38 39 40 40 40 40 41 41 41 41 42 43 43 43 43
20 21 22 23 24 25 26 27 28 29 29 30 31 31 32 32 33 34 35 35 36 36 37 38 38 39 39 39 40 40 41 41 41 41 41 41 42 42 43 43 43 43 43
22 23 24 25 26 27 28 29 29 30 30 31 31 32 33 34 34 35 36 36 37 38 38 38 39 40 40 40 41 41 41 41 42 42 42 43 43 43 44 43 43 43 43
24 25 26 27 28 29 29 30 31 31 32 32 33 34 34 35 35 36 36 37 38 39 39 39 39 40 41 41 41 41 41 42 42 43 43 44 44 44 44 44 43 43 44
26 27 28 29 29 30 31 31 32 33 33 33 34 34 35 36 36 36 37 38 39 39 39 40 40 41 42 42 42 42 43 43 44 44 45 45 45 44 44 44 44 43 43
28 29 30 30 30 31 32 32 33 34 34 34 34 35 36 36 37 37 38 39 40 40 40 41 41 42 42 42 43 43 44 44 45 45 45 45 44 44 44 44 44 44 44
31 31 31 31 32 32 33 33 34 35 35 35 35 36 37 37 37 38 38 40 40 40 41 41 42 43 43 43 44 44 45 45 45 45 44 44 44 44 44 43 43 43 43
32 32 33 33 34 34 34 35 35 35 36 36 36 37 37 38 38 38 39 40 41 41 42 42 43 43 43 44 44 45 45 45 44 44 43 43 43 43 43 43 43 43 43
34 34 35 35 35 35 36 36 36 36 36 37 37 37 38 38 38 39 40 41 42 42 42 42 43 43 44 44 44 44 44 44 44 43 43 44 44 44 44 44 44 44 45
35 36 36 36 37 37 36 36 37 37 37 38 38 39 39 39 39 40 41 41 42 42 42 42 43 44 44 44 44 44 44 44 44 44 44 45 45 45 45 45 46 46 47
37 37 38 38 38 38 37 37 37 37 38 38 39 39 39 40 40 41 41 41 42 42 42 43 44 44 44 45 45 45 45 45 45 45 46 46 46 46 47 47 48 48 49
39 39 39 39 39 39 38 38 38 38 38 39 39 40 40 41 41 41 41 42 42 42 43 44 44 45 45 46 46 46 46 46 46 47 47 47 48 48 49 49 50 51 52
40 40 40 40 39 39 39 38 38 38 39 39 40 40 41 41 41 41 42 42 42 43 44 44 45 46 47 47 47 47 47 48 48 48 49 49 50 51 51 52 53 54 56
41 42 41 40 40 40 40 39 39 40 40 41 41 41 41 42 42 41 42 43 43 44 44 45 46 47 47 47 47 48 48 49 49 50 51 51 52 53 54 55 56 58 59
42 42 41 41 41 41 40 39 40 41 41 41 41 41 42 42 42 42 43 44 44 45 45 46 47 48 48 48 49 49 50 51 51 52 53 54 55 56 57 58 60 61 62
43 42 42 42 41 40 40 40 40 41 41 42 42 42 42 42 42 43 44 44 45 46 47 47 48 49 50 50 50 51 52 52 53 55 55 56 58 59 61 62 63 64 66
43 42 42 41 41 40 40 40 40 41 42 42 42 42 42 42 42 44 45 46 46 47 48 49 50 51 51 52 53 53 54 54 56 57 58 59 61 62 63 64 65 67 68
43 42 42 41 40 40 40 40 41 41 42 42 43 43 43 43 43 45 46 46 47 48 49 50 51 51 52 53 54 55 56 57 58 59 60 61 63 63 64 65 66 68 69
42 42 41 41 41 41 41 41 41 41 42 42 42 42 43 43 44 45 46 47 47 49 51 52 52 53 54 55 56 57 58 59 60 61 62 63 63 64 65 66 67 68 69
42 41 41 41 41 41 41 41 41 42 42 42 42 43 43 44 45 47 47 48 49 51 52 53 53 54 55 56 57 58 59 60 61 62 63 63 64 65 66 67 68 68 68
41 40 40 40 40 40 40 40 41 42 42 42 43 43 44 45 46 47 48 49 50 51 53 54 55 56 57 58 59 60 60 61 61 62 63 64 65 66 66 67 67 67 67
40 40 39 39 40 40 40 40 41 41 42 42 42 43 44 46 46 47 49 50 51 52 54 56 57 58 59 60 60 61 62 63 63 63 64 64 66 66 66 67 67 66 66
39 39 38 39 39 40 40 40 40 40 41 42 43 44 45 45 47 48 49 51 52 54 55 57 58 59 60 61 62 63 63 64 64 65 65 64 65 66 66 66 66 65 63
38 38 38 38 39 39 39 39 39 40 41 42 42 43 45 46 47 49 50 52 53 55 57 58 59 60 61 62 63 64 64 64 64 64 65 65 64 64 64 65 64 63 60
38 38 38 38 39 39 39 39 39 40 41 41 42 44 45 46 48 49 51 52 54 56 58 58 59 60 61 62 63 64 64 64 63 63 64 64 63 62 61 62 61 59 56
37 37 38 38 38 38 38 38 39 40 40 41 43 43 45 47 48 50 51 53 55 56 57 58 59 60 62 63 64 64 64 63 63 63 62 62 61 61 59 57 57 55 52

GEFSMA_500_meanwind_138.txt.gz
Wind_Speed
18 17 17 17 17 18 18 19 20 21 22 23 24 25 26 27 28 29 30 30 31 32 32 33 34 35 35 36 37 38 38 38 38 38 38 38 38 38 39 39 39 39 39
19 18 18 18 18 19 20 21 22 23 24 25 26 26 27 28 29 30 30 31 32 33 33 34 35 35 36 37 38 38 38 38 38 38 38 39 39 39 39 39 40 40 40
20 20 19 19 20 21 22 23 24 25 25 26 27 28 29 29 30 31 31 32 33 33 34 35 36 36 37 38 38 38 38 38 39 39 39 39 39 40 40 40 40 40 40
21 21 21 21 22 23 24 25 25 26 27 28 29 30 30 31 31 32 32 33 33 34 35 36 37 37 38 38 39 39 39 39 39 39 39 39 39 39 39 39 39 39 39
23 23 23 23 23 24 25 26 27 28 28 29 30 31 31 32 32 33 33 34 34 35 36 37 37 38 38 39 39 39 39 39 39 39 39 39 39 39 39 39 39 39 39
25 25 25 25 25 26 27 27 28 29 30 31 31 32 33 33 33 34 34 35 35 36 37 38 38 39 39 39 40 40 39 39 39 39 40 39 39 39 39 39 39 39 39
27 27 27 27 27 28 28 29 30 30 31 32 32 33 34 34 34 35 35 36 36 37 38 38 39 39 40 40 40 40 40 39 39 40 40 39 39 39 39 39 40 40 40
29 29 28 28 29 30 31 31 32 32 33 33 34 34 35 35 35 36 36 36 37 38 38 39 40 40 40 40 40 40 40 40 40 40 40 40 40 40 40 40 40 41 41
30 30 30 31 32 32 33 33 33 33 34 34 35 35 36 36 36 36 36 37 38 38 39 40 40 40 40 40 40 40 40 41 41 41 41 41 41 41 42 42 42 43 43
33 33 33 33 33 34 34 34 35 35 35 35 36 36 37 37 37 36 37 38 39 39 40 40 40 40 40 40 41 41 41 42 42 42 42 42 43 43 43 43 44 45 45
36 36 35 35 35 36 36 36 36 36 36 37 37 37 37 37 37 37 37 38 39 39 40 40 40 41 41 41 42 42 42 43 43 44 44 44 44 44 45 45 46 47 47
37 37 37 37 37 37 38 38 38 38 38 38 38 38 38 38 38 38 38 39 39 40 40 40 41 42 42 42 43 43 43 44 45 45 45 46 46 47 47 48 48 49 50
38 38 39 39 39 39 39 39 39 39 39 38 38 39 39 38 39 39 39 40 40 40 41 41 42 43 43 43 43 44 45 46 46 47 47 48 49 49 50 50 51 52 53
40 40 40 40 40 40 40 40 39 39 39 39 39 39 39 39 39 40 40 41 41 41 41 41 42 43 44 44 45 46 47 48 48 49 49 50 51 51 52 53 54 55 57
40 41 41 41 41 42 41 41 40 40 39 39 39 40 39 40 40 40 41 42 42 42 42 42 43 44 45 46 47 48 49 50 50 51 52 53 53 54 55 56 57 59 60
42 42 42 42 42 42 42 41 40 40 40 39 40 40 40 41 41 41 42 42 43 43 43 43 44 45 46 47 49 50 51 52 53 54 55 55 55 56 57 58 59 60 61
43 43 43 43 42 42 41 40 40 40 40 40 40 41 41 41 42 42 42 43 43 44 44 44 45 46 47 49 51 52 53 54 55 56 56 57 57 58 59 60 61 62 62
43 43 43 43 43 42 41 41 40 40 40 40 41 41 41 42 42 42 42 43 44 44 45 45 46 48 49 51 52 53 54 55 56 57 58 58 59 60 61 62 63 62 63
44 44 43 43 42 42 41 40 40 40 41 41 41 41 42 42 42 42 43 43 44 45 46 47 48 49 51 53 54 55 55 56 57 58 59 60 61 62 63 64 64 63 64
44 43 43 42 41 41 41 40 40 41 41 41 41 41 42 42 42 43 43 44 45 45 47 48 50 51 52 53 55 56 56 57 58 60 61 62 63 63 63 64 64 64 65
43 42 42 41 41 41 40 41 41 41 41 41 41 41 42 42 42 43 43 44 45 46 47 49 50 51 53 55 56 56 57 58 59 60 61 62 62 62 63 64 64 63 64
42 41 41 41 41 41 41 41 41 41 41 42 41 41 41 41 42 42 43 44 45 46 48 49 51 52 54 55 56 57 57 58 59 60 61 61 62 62 62 63 63 62 62
40 41 41 41 40 40 41 41 41 41 41 41 40 40 41 41 42 42 43 44 46 47 48 49 51 53 55 55 56 57 58 59 60 61 62 61 62 62 62 62 61 61 61
40 40 40 40 41 41 40 41 41 41 41 40 40 40 40 41 42 42 43 45 46 47 48 50 52 54 55 55 56 57 58 59 60 62 62 61 61 60 60 60 60 60 59
39 39 39 39 40 40 40 40 40 40 40 40 39 40 41 41 42 43 44 45 46 47 48 50 52 54 54 55 56 58 59 60 60 60 61 60 59 58 58 59 58 58 57
38 38 38 38 38 39 39 39 39 39 39 39 39 40 40 41 42 43 44 45 45 47 48 50 52 53 54 55 56 58 59 60 60 59 59 59 58 58 57 57 57 56 55